Regional Weather Roundup
Issued by NWS

Home | Current Version | Previous Version | Graphics & Text | Print | Product List | Glossary On
Versions: 1 2 3 4 5 6 7 8 9 10 11 12 13 14 15 16 17 18 19 20 21 22 23 24 25 26 27 28 29 30 31 32 33 34 35 36 37 38 39 40 41 42 43 44 45 46 47 48 49 50
000
ASUS43 KIND 051509
RWRIN

WEATHER ROUNDUP FOR INDIANA
NATIONAL WEATHER SERVICE INDIANAPOLIS IN
1000 AM EST THU MAR 05 2015

NOTE: "FAIR" INDICATES FEW OR NO CLOUDS BELOW 12,000 FEET WITH NO
SIGNIFICANT WEATHER AND/OR OBSTRUCTIONS TO VISIBILITY.

* - STATION DOES NOT REPORT WEATHER SUCH AS PRECIPITATION OR FOG.

+ - STATION NOT QUALITY CONTROLLED BY THE NATIONAL WEATHER SERVICE.
    USE DATA WITH CAUTION...ESPECIALLY DEWPOINT AND RELATIVE
    HUMIDITY OBSERVATIONS.

INZ001>003-010>013-019-020-051600-
NORTHWEST INDIANA

CITY           SKY/WX    TMP DP  RH WIND       PRES   REMARKS
GARY /AIRPORT/ MOSUNNY   16  -2  45 NW12      30.45R WCI   3
KNOX *+          N/A     16   0  48 CALM      30.41F
LA PORTE +     MOSUNNY   17  10  75 SW5       30.41S WCI  10
MICHIGAN CITY+ MOSUNNY   19   1  45 NW9       30.42S WCI   9
MONTICELLO +   MOSUNNY   11   4  71 NW6       30.42S WCI   2
RENSSELAER +   MOSUNNY   14   7  73 NW8       30.43S WCI   3
VALPARAISO     MOSUNNY   16   8  71 NW9       30.42R WCI   4

$$

LMZ046-743>745-051600-
SOUTHERN LAKE MICHIGAN

STATION/POSITION TIME  TEMP WIND        PRES
                       AIR  DIR/SP/G
                 (UTC) (F)  (DEG/KT/KT) (MB)
MICHIGAN CITY    1500   18  270/ 10/ 12   N/A

$$

INZ004-005-014>016-021>024-051600-
NORTH CENTRAL INDIANA

CITY           SKY/WX    TMP DP  RH WIND       PRES   REMARKS
ELKHART        MOSUNNY   14  -2  48 CALM      30.42R
GOSHEN         MOSUNNY   15   3  59 CALM      30.40R
LOGANSPORT +   MOSUNNY   18   3  53 CALM      30.41S
PERU/GRISSOM   MOSUNNY   16   4  59 NE8       30.37S WCI   5
ROCHESTER +    MOSUNNY   19   5  53 CALM      30.41S
SOUTH BEND     PTSUNNY   17   4  56 CALM      30.41R
WARSAW +       MOSUNNY   14   1  57 N6        30.40R WCI   5

$$

INZ006>009-017-018-025>027-051600-
NORTHEAST INDIANA

CITY           SKY/WX    TMP DP  RH WIND       PRES   REMARKS
ANGOLA *+      SUNNY     16   1  53 CALM      30.37R
AUBURN +       PTSUNNY   18   1  49 CALM      30.40R
FORT WAYNE     PTSUNNY   16   0  49 N3        30.39R
HUNTINGTON +   PTSUNNY   15  -4  42 NE5       30.39F WCI   8

$$

INZ028-029-035-036-043>045-051>053-051600-
WEST CENTRAL INDIANA

CITY           SKY/WX    TMP DP  RH WIND       PRES   REMARKS
CRAWFORDSVL +  MOSUNNY   11  -2  55 NW9       30.41S WCI  -1
GREENCASTLE +  PTSUNNY   14   1  57 N7        30.41R WCI   4
LAFAYETTE      MOSUNNY   12   2  64 N5        30.43S WCI   4
TERRE HAUTE    MOSUNNY   14   3  61 NW8       30.44R WCI   3

$$

INZ030>032-037>040-046>048-054>057-064-065-051600-
CENTRAL INDIANA

CITY           SKY/WX    TMP DP  RH WIND       PRES   REMARKS
CP ATTERBURY + CLOUDY    21  10  63 N8        30.39R WCI  12
COLUMBUS       MOSUNNY   19   7  58 N12       30.38F WCI   7
FISHERS *+     CLOUDY    18  10  73 NE3       30.39
FRANKFORT +    MOSUNNY   15   6  67 NW7       30.41S WCI   5
GREENWOOD *+   CLOUDY    18   5  57 NE8       30.38  WCI   7
INDIANAPOLIS   CLOUDY    18   6  59 N8        30.38R WCI   8
-EAGLE CREEK   PTSUNNY   16   6  65 NW8       30.38S WCI   5
KOKOMO *+      MOSUNNY   18   7  62 NE7       30.39F WCI   8
MARION +       PTSUNNY   15   1  53 NE8       30.38F WCI   5
MT COMFORT *+  CLOUDY    18   1  49 N6        30.37S WCI   9
SHELBYVILLE    CLOUDY    20   9  62 N7        30.35F WCI  11
ZIONSVILLE +   PTSUNNY   16   6  64 N6        30.38S WCI   8

$$

INZ033-034-041-042-049-050-058-059-051600-
EAST CENTRAL INDIANA

CITY           SKY/WX    TMP DP  RH WIND       PRES   REMARKS
MUNCIE         CLOUDY    16   5  62 NE7       30.37R WCI   6

$$

INZ060-061-067>069-081>083-085>088-051600-
SOUTHWEST INDIANA

CITY           SKY/WX    TMP DP  RH WIND       PRES   REMARKS
EVANSVILLE     CLOUDY    20   8  60 N9        30.45R WCI   9
HUNTINGBURG *+ CLOUDY    19   7  58 N12       30.42R WCI   7
WASHINGTON +   CLOUDY    17   4  55 NW12      30.44R WCI   5

$$

INZ062-063-066-070>080-084-089>092-051600-
SOUTH CENTRAL AND SOUTHEAST INDIANA

CITY           SKY/WX    TMP DP  RH WIND       PRES   REMARKS
BEDFORD +      CLOUDY    19   9  63 NW7       30.38R WCI  10
BLOOMINGTON    CLOUDY    17   6  62 N9        30.38R WCI   6
NORTH VERNON + CLOUDY    21   9  58 NE7       30.36F WCI  13
SEYMOUR +      CLOUDY    23   9  54 N9        30.40R WCI  13

$$



USA.gov is the U.S. government's official web portal to all federal, state and local government web resources and services.